Location: Dealu Mare
(46.0500°N, 22.8167°E)
Time: 09:21:53
(UTC+00:00)

Cosmos 1805 Rocket - Pass Details

Date: 15 January 2026
Orbit: 599 x 623 km, 82.5° (Epoch: 9 February)

Event Time Altitude Azimuth Distance (km) Brightness Sun altitude
Rises 04:25:27 0° 199° (SSW) 2,891 6.9 -17.2°
Reaches altitude 10° 04:27:42 10° 203° (SSW) 1,989 6.1 -16.8°
Maximum altitude 04:32:02 55° 282° (WNW) 749 3.6 -16.1°
Drops below altitude 10° 04:36:24 10° 1° (N) 1,998 6.0 -15.3°
Sets 04:38:40 0° 6° (N) 2,906 6.9 -14.9°
